Simultaneous Nadir Overpasses (SNOs) Predictions

Prediction of SNOs between AQUA and METOP-B Satellite Orbit:

Table of predicted SNOs for the next 14.0 days since TLE Epoch: 9/14/2024
Index Date (AQUA) Time (AQUA) Lat,Lon (AQUA) SZA (AQUA ) Date (METOP-B) Time (METOP-B) Lat,Lon (METOP-B) SZA (METOP-B ) Distance(km) Time Diff (sec)
1 09/16/2024 07:30:10 -76.21,-114.62 106.28 09/16/2024 07:29:24 -76.23,-114.67 106.26 2.95 46
2 09/16/2024 08:19:33 76.26, 52.86 73.79 09/16/2024 08:20:03 76.28, 52.83 73.81 2.19 30
3 09/18/2024 22:00:34 -76.25, 27.69 105.23 09/18/2024 21:59:38 -76.25, 27.82 105.23 3.69 56
4 09/18/2024 22:49:56 76.26,-164.70 74.80 09/18/2024 22:50:17 76.30,-164.68 74.84 3.81 21
5 09/21/2024 12:30:51 -76.25, 170.16 104.22 09/21/2024 12:29:51 -76.25, 170.23 104.22 1.69 60
6 09/21/2024 13:20:13 76.27, -22.24 75.82 09/21/2024 13:20:30 76.29, -22.29 75.84 2.53 17
7 09/24/2024 03:01:04 -76.25, -47.34 103.21 09/24/2024 03:00:04 -76.26, -47.31 103.20 1.17 60
8 09/24/2024 03:50:26 76.28, 120.23 76.84 09/24/2024 03:50:43 76.30, 120.16 76.86 2.76 17
9 09/26/2024 17:31:12 -76.26, 95.16 102.19 09/26/2024 17:30:17 -76.24, 95.05 102.20 3.22 55
10 09/26/2024 18:20:35 76.34, -97.45 77.91 09/26/2024 18:20:55 76.33, -97.32 77.90 3.71 20



Historial Predications of SNOs between AQUA and METOP-B
